小惑星A/2019 O2

A/2019 O2

English version
Home page
Updated on January 20, 2020

---------------------------------------------------------------------

・ プロフィール

発見日 2019年7月24日
発見光度 20.5等
発見者 Pan-STARRS 1 telescope (Haleakala)

・ 軌道要素

Epoch 2023 Apr. 6.0 TT = JDT 2460040.5
T 2023 Apr. 7.62353 TT                                  Williams
q   9.6805816            (2000.0)            P               Q
z  +0.0172662      Peri.  129.66628     -0.39181519     -0.53994216
 +/-0.0000000      Node    48.26121     -0.76981047     -0.25102427
e   0.8328530      Incl.   93.30692     +0.50385781     -0.80339858
H    9.5
From 58 observations 2019 July 24-Dec. 29, mean residual 0".3.

・ 光度変化

        H = 9.5  G = 0.15

---------------------------------------------------------------------

軌道要素はM.P.E.C. 2020-A105に掲載されたものです。
光度グラフはComet for Windowsで作成したものです。

---------------------------------------------------------------------

Copyright(C) Seiichi Yoshida (comet@aerith.net). All rights reserved.